Location: Bonn
(50.7330°N, 7.1000°E)
Time: 10:24:58
(UTC+02:00)

Cosmos 1933 Rocket - Visible Passes

Search period start: 26 July 2016 00:00
Search period end: 05 August 2016 00:00
Orbit: 606 x 631 km, 82.5° (Epoch: 25 July)

Date Brightness Start Highest point End Pass type
(mag) Time Alt. Az. Time Alt. Az. Time Alt. Az.
29 Jul 6.9 04:59:30 10° NNE 05:01:43 14° ENE 05:03:55 10° E visible
30 Jul 6.5 05:15:57 10° NNE 05:19:20 21° ENE 05:22:42 10° ESE visible
02 Aug 6.7 04:30:46 10° NNE 04:33:06 14° ENE 04:35:26 10° E visible
03 Aug 6.3 04:47:16 10° NNE 04:50:43 22° ENE 04:54:08 10° ESE visible
04 Aug 5.3 05:04:11 10° N 05:08:12 36° ENE 05:12:14 10° SE visible
